Weather History for South Haven, MI

Change the Weather History Date:

Thursday, November 29, 2012

  Actual Average (KBIV) Record (KBIV)
Temperature  
Mean Temperature 43 °F 36 °F  
Max Temperature 52 °F 42 °F 64 °F (1998)
Min Temperature 34 °F 31 °F 10 °F (1958)
Degree Days  
Heating Degree Days 22 28  
Month to date heating degree days 668  
Since 1 July heating degree days 1193  
Cooling Degree Days 0 0  
Month to date cooling degree days 0  
Year to date cooling degree days 693  
Moisture  
Dew Point 28 °F    
Average Humidity 60    
Maximum Humidity 75    
Minimum Humidity 39    
Precipitation  
Precipitation 0.00 in 0.09 in 1.14 in (2006)
Month to date precipitation 3.37  
Year to date precipitation 34.07  
Sea Level Pressure  
Sea Level Pressure 30.20 in    
Wind  
Wind Speed 6 mph (SSW)    
Max Wind Speed 13 mph    
Max Gust Speed 18 mph    
Visibility 10 miles    
Events      
T = Trace of Precipitation, MM = Missing Value Source: NWS Daily Summary

Daily Weather History Graph

Daily Weather History Graph

Search for Another Location

Airport:

Trip Planner

Search our weather history database for the weather conditions in past years. The results will help you decide how hot, cold, wet, or windy it might be!

Date:

Astronomy

Nov. 29, 2012 Rise Set
Actual Time 7:52 AM EST 5:13 PM EST
Civil Twilight 7:21 AM EST 5:45 PM EST
Nautical Twilight 6:46 AM EST 6:20 PM EST
Astronomical Twilight 6:13 AM EST 6:53 PM EST
Moon 6:16 PM EST (11/29) 8:39 AM EST (11/29)
Length of Visible Light 10h 23m
Length of Day
9h 21m
Full, 99% of the Moon is Illuminated
Nov 29
Full
Dec 6
Last Quarter
Dec 13
New
Dec 20
First Quarter
Dec 28
Full

Hourly Weather History & Observations

Time (EST) Temp. Windchill Dew Point Humidity Pressure Visibility Wind Dir Wind Speed Gust Speed Precip Events Conditions
12:15 AM 35.6 °F 29.9 °F 25.9 °F 68% 30.27 in 10.0 mi SSW 6.9 mph - N/A   Clear
12:35 AM 35.6 °F 30.7 °F 23.9 °F 62% 30.27 in 10.0 mi South 5.8 mph - N/A   Clear
12:55 AM 35.6 °F 30.7 °F 23.0 °F 60% 30.27 in 10.0 mi South 5.8 mph - N/A   Clear
1:15 AM 35.4 °F 32.6 °F 23.0 °F 61% 30.27 in 10.0 mi SSW 3.5 mph - N/A   Clear
1:35 AM 35.8 °F 31.9 °F 23.5 °F 61% 30.26 in 10.0 mi SSW 4.6 mph - N/A   Clear
1:56 AM 36.0 °F 30.3 °F 23.9 °F 62% 30.26 in 10.0 mi South 6.9 mph - N/A   Clear
2:15 AM 36.1 °F 30.6 °F 23.9 °F 61% 30.27 in 10.0 mi SSW 6.9 mph - N/A   Clear
2:35 AM 36.3 °F 30.8 °F 24.8 °F 63% 30.27 in 10.0 mi SSW 6.9 mph - N/A   Clear
2:55 AM 36.1 °F 30.6 °F 25.3 °F 65% 30.27 in 10.0 mi SSW 6.9 mph - N/A   Clear
3:15 AM 35.6 °F 30.7 °F 25.5 °F 67% 30.28 in 10.0 mi SSW 5.8 mph - N/A   Clear
3:35 AM 35.8 °F 30.1 °F 26.6 °F 69% 30.27 in 10.0 mi South 6.9 mph - N/A   Clear
3:55 AM 35.4 °F 30.5 °F 26.4 °F 70% 30.27 in 10.0 mi South 5.8 mph - N/A   Clear
4:15 AM 34.5 °F 29.4 °F 26.1 °F 71% 30.27 in 10.0 mi South 5.8 mph - N/A   Clear
4:36 AM 34.3 °F 28.4 °F 26.2 °F 72% 30.26 in 10.0 mi South 6.9 mph - N/A   Clear
4:55 AM 34.7 °F 29.6 °F 26.4 °F 72% 30.25 in 10.0 mi South 5.8 mph - N/A   Clear
5:15 AM 34.7 °F 28.1 °F 26.6 °F 72% 30.25 in 10.0 mi South 8.1 mph - N/A   Clear
5:35 AM 34.7 °F 28.8 °F 26.6 °F 72% 30.24 in 10.0 mi SSW 6.9 mph - N/A   Clear
5:55 AM 34.9 °F 29.9 °F 27.0 °F 73% 30.25 in 10.0 mi SSW 5.8 mph - N/A   Clear
6:15 AM 34.9 °F 30.8 °F 27.0 °F 73% 30.25 in 10.0 mi SSW 4.6 mph - N/A   Clear
6:35 AM 34.7 °F 29.6 °F 26.6 °F 72% 30.25 in 10.0 mi SSW 5.8 mph - N/A   Clear
6:55 AM 34.3 °F 29.2 °F 26.6 °F 73% 30.25 in 10.0 mi SSW 5.8 mph - N/A   Clear
7:15 AM 34.2 °F 29.0 °F 27.0 °F 75% 30.25 in 10.0 mi SSW 5.8 mph - N/A   Clear
7:35 AM 34.2 °F 28.2 °F 27.1 °F 75% 30.24 in 10.0 mi South 6.9 mph - N/A   Clear
7:56 AM 34.2 °F 29.0 °F 27.0 °F 75% 30.24 in 10.0 mi South 5.8 mph - N/A   Clear
8:15 AM 34.2 °F 27.5 °F 26.4 °F 73% 30.24 in 10.0 mi South 8.1 mph - N/A   Clear
8:35 AM 34.3 °F 28.4 °F 26.4 °F 73% 30.24 in 10.0 mi SSW 6.9 mph - N/A   Clear
8:55 AM 35.4 °F 29.7 °F 26.6 °F 70% 30.24 in 10.0 mi SSW 6.9 mph - N/A   Clear
9:15 AM 36.7 °F 31.2 °F 26.8 °F 67% 30.24 in 10.0 mi SSW 6.9 mph - N/A   Clear
9:36 AM 38.1 °F 32.9 °F 27.1 °F 65% 30.25 in 10.0 mi SSW 6.9 mph - N/A   Clear
9:55 AM 39.6 °F 34.7 °F 27.3 °F 62% 30.24 in 10.0 mi SSW 6.9 mph - N/A   Clear
10:15 AM 40.8 °F 34.5 °F 27.3 °F 59% 30.24 in 10.0 mi SSW 10.4 mph - N/A   Clear
10:36 AM 42.3 °F 36.3 °F 27.5 °F 56% 30.24 in 10.0 mi SSW 10.4 mph 16.1 mph N/A   Clear
10:55 AM 43.2 °F 37.4 °F 27.7 °F 54% 30.23 in 10.0 mi South 10.4 mph 17.3 mph N/A   Clear
11:15 AM 44.6 °F 39.7 °F 28.0 °F 52% 30.23 in 10.0 mi SSW 9.2 mph 18.4 mph N/A   Clear
11:35 AM 45.9 °F 40.4 °F 28.0 °F 50% 30.22 in 10.0 mi SSW 11.5 mph - N/A   Clear
11:55 AM 47.1 °F - 27.9 °F 47% 30.21 in 10.0 mi SSW 10.4 mph - N/A   Clear
12:15 PM 48.2 °F - 28.0 °F 46% 30.21 in 10.0 mi SW 9.2 mph - N/A   Clear
12:35 PM 48.7 °F - 27.1 °F 43% 30.19 in 10.0 mi SW 12.7 mph 17.3 mph N/A   Clear
12:55 PM 49.8 °F - 27.0 °F 41% 30.18 in 10.0 mi SW 9.2 mph - N/A   Clear
1:15 PM 50.2 °F - 27.1 °F 41% 30.17 in 10.0 mi SW 9.2 mph - N/A   Clear
1:35 PM 51.3 °F - 27.3 °F 40% 30.17 in 10.0 mi SSW 8.1 mph - N/A   Clear
1:56 PM 52.0 °F - 27.7 °F 39% 30.17 in 10.0 mi SW 9.2 mph - N/A   Clear
2:15 PM 51.4 °F - 29.1 °F 42% 30.17 in 10.0 mi WSW 8.1 mph - N/A   Clear
2:35 PM 51.1 °F - 30.6 °F 45% 30.16 in 10.0 mi WSW 6.9 mph - N/A   Clear
2:55 PM 50.9 °F - 29.3 °F 43% 30.15 in 10.0 mi SW 5.8 mph - N/A   Clear
3:15 PM 51.1 °F - 29.7 °F 44% 30.15 in 10.0 mi SSW 4.6 mph - N/A   Clear
3:35 PM 51.1 °F - 28.9 °F 43% 30.14 in 10.0 mi South 5.8 mph - N/A   Clear
3:55 PM 50.7 °F - 28.9 °F 43% 30.14 in 10.0 mi South 9.2 mph - N/A   Clear
4:16 PM 50.4 °F - 28.6 °F 43% 30.14 in 10.0 mi South 5.8 mph - N/A   Clear
4:35 PM 50.0 °F - 29.1 °F 45% 30.14 in 10.0 mi SSW 5.8 mph - N/A   Clear
4:55 PM 48.7 °F - 29.3 °F 47% 30.14 in 10.0 mi South 4.6 mph - N/A   Clear
5:15 PM 46.9 °F - 29.3 °F 50% 30.14 in 10.0 mi SSE 3.5 mph - N/A   Clear
5:35 PM 45.3 °F - 29.8 °F 55% 30.14 in 10.0 mi Calm Calm - N/A   Clear
5:56 PM 45.3 °F 44.0 °F 29.8 °F 55% 30.14 in 10.0 mi SSE 3.5 mph - N/A   Clear
6:15 PM 43.5 °F 41.9 °F 30.7 °F 61% 30.15 in 10.0 mi South 3.5 mph - N/A   Clear
6:35 PM 44.8 °F 43.3 °F 31.3 °F 59% 30.14 in 10.0 mi SSE 3.5 mph - N/A   Clear
6:56 PM 45.0 °F 42.6 °F 31.5 °F 59% 30.15 in 10.0 mi SSE 4.6 mph - N/A   Clear
7:15 PM 44.4 °F - 31.3 °F 60% 30.15 in 10.0 mi Calm Calm - N/A   Clear
7:36 PM 44.1 °F 42.5 °F 30.9 °F 60% 30.15 in 10.0 mi SSE 3.5 mph - N/A   Clear
7:55 PM 43.7 °F 41.1 °F 31.1 °F 61% 30.15 in 10.0 mi SSE 4.6 mph - N/A   Clear
8:15 PM 43.2 °F 41.5 °F 31.5 °F 63% 30.16 in 10.0 mi SSE 3.5 mph - N/A   Clear
8:35 PM 43.0 °F - 31.6 °F 64% 30.16 in 10.0 mi Calm Calm - N/A   Clear
8:55 PM 43.2 °F 41.5 °F 31.8 °F 64% 30.17 in 10.0 mi SE 3.5 mph - N/A   Scattered Clouds
9:16 PM 42.3 °F 40.5 °F 32.0 °F 67% 30.16 in 10.0 mi SSE 3.5 mph - N/A   Scattered Clouds
9:35 PM 43.2 °F - 32.2 °F 65% 30.16 in 10.0 mi Calm Calm - N/A   Overcast
9:55 PM 43.7 °F 42.1 °F 32.2 °F 64% 30.16 in 10.0 mi SE 3.5 mph - N/A   Overcast
10:15 PM 43.9 °F - 32.5 °F 64% 30.16 in 10.0 mi Calm Calm - N/A   Overcast
10:35 PM 43.7 °F - 32.9 °F 66% 30.16 in 10.0 mi Calm Calm - N/A   Overcast
10:56 PM 44.2 °F 42.7 °F 32.9 °F 64% 30.15 in 10.0 mi SSE 3.5 mph - N/A   Overcast
11:15 PM 44.6 °F 42.2 °F 32.9 °F 64% 30.15 in 10.0 mi South 4.6 mph - N/A   Overcast
11:35 PM 44.6 °F 43.1 °F 32.9 °F 64% 30.14 in 10.0 mi SSE 3.5 mph - N/A   Overcast
11:56 PM 45.0 °F - 32.9 °F 63% 30.14 in 10.0 mi Calm Calm - N/A   Overcast